Location: Newark
(46.2667°N, 9.8667°E)
Time: 08:32:19
(UTC+00:00)

N. Korean satellite - Visible Passes

Search period start: 01 October 2020 00:00
Search period end: 11 October 2020 00:00
Orbit: 454 x 503 km, 97.2° (Epoch: 30 September)

Date Brightness Start Highest point End Pass type
(mag) Time Alt. Az. Time Alt. Az. Time Alt. Az.
01 Oct 9.2 04:17:43 10° NE 04:20:46 25° E 04:23:45 10° SSE visible
02 Oct 10.0 03:52:47 10° ENE 03:54:31 13° E 03:56:13 10° ESE visible
04 Oct 8.3 04:32:39 10° NNE 04:36:02 38° E 04:39:19 10° SSE visible
05 Oct 9.6 04:07:12 10° NE 04:09:49 19° E 04:12:23 10° SE visible
07 Oct 7.2 04:47:40 10° NNE 04:51:13 60° E 04:54:39 10° S visible
08 Oct 8.9 04:21:56 10° NE 04:25:03 28° E 04:28:05 10° SSE visible
09 Oct 9.9 03:56:48 10° ENE 03:58:46 14° E 04:00:43 10° SE visible
10 Oct 10.4 17:15:30 10° WSW 17:17:11 13° W 17:18:52 10° WNW visible
